Location: Lavington
(51.2833°N, 1.9833°W)
Time: 15:41:15
(UTC+00:00)

Abrixas rocket - Pass Details

Date: 01 June 2020
Orbit: 342 x 347 km, 48.4° (Epoch: 11 July)

Event Time Altitude Azimuth Distance (km) Brightness Sun altitude
Rises 22:21:47 0° 269° (W) 2,164 6.2 -13.0°
Reaches altitude 10° 22:25:14 10° 226° (SW) 1,314 4.6 -13.2°
Enters shadow 22:25:40 10° 218° (SW) 1,291 4.4 -13.3°
